Regional Weather Roundup
Issued by NWS

Home | Current Version | Previous Version | Text Only | Print | Product List | Glossary Off
Versions: 1 2 3 4 5 6 7 8 9 10 11 12 13 14 15 16 17 18 19 20 21 22 23 24 25 26 27 28 29 30 31 32 33 34 35 36 37 38 39 40 41 42 43 44 45

000
ASUS45 KPSR 291210
RWRAZ

ARIZONA HOURLY REGIONAL WEATHER ROUNDUP
NATIONAL WEATHER SERVICE PHOENIX AZ
500 AM MST MON MAY 29 2017

NOTE: FAIR INDICATES FEW OR NO CLOUDS BELOW 12,000 FEET WITH NO
SIGNIFICANT WEATHER AND/OR OBSTRUCTIONS TO VISIBILITY.

AZZ001>003-036-291300-
NORTHWEST ARIZONA

CITY           SKY/WX    TMP DP  RH WIND       PRES   REMARKS
BULLHEAD CITY  CLEAR     75  18  11 N3        29.77S
KINGMAN        CLEAR     54  18  24 MISG      29.96S
6HR MIN TEMP:  53; 6HR MAX TEMP:  64;

$$

AZZ004>008-015-016-018-291300-
NORTH CENTRAL ARIZONA

CITY           SKY/WX    TMP DP  RH WIND       PRES   REMARKS
GRAND CANYON   PTCLDY    46  23  40 NE7       30.22R
6HR MIN TEMP:  42; 6HR MAX TEMP:  58;

WILLIAMS       PTCLDY    54  18  24 S12       30.19R
PRESCOTT       CLEAR     52  25  35 S6        30.08S
6HR MIN TEMP:  51; 6HR MAX TEMP:  64;

FLAGSTAFF      CLEAR     38  23  55 NE3       30.22S
6HR MIN TEMP:  37; 6HR MAX TEMP:  49;

PAYSON         CLEAR     64  19  17 CALM      30.10R
PAGE           CLEAR     64  22  20 SW5       30.09R
6HR MIN TEMP:  61; 6HR MAX TEMP:  71;

$$

AZZ009>014-017-291300-
NORTHEAST ARIZONA

CITY           SKY/WX    TMP DP  RH WIND       PRES   REMARKS
WINSLOW        CLEAR     48  19  31 NW6       30.12R
6HR MIN TEMP:  45; 6HR MAX TEMP:  58;

SAINT JOHNS    CLEAR     48  27  44 CALM      30.13R
6HR MIN TEMP:  48; 6HR MAX TEMP:  66;

WINDOW ROCK    CLEAR     38  19  46 CALM      30.24R
6HR MIN TEMP:  34; 6HR MAX TEMP:  49;

SHOW LOW       CLEAR     46  16  29 S5        30.18R
$$

AZZ540-542>544-546-548-291300-
GREATER PHOENIX AREA

CITY           SKY/WX    TMP DP  RH WIND       PRES   REMARKS
PHOENIX        PTCLDY    74  34  23 E6        29.79R
6HR MIN TEMP:  74; 6HR MAX TEMP:  90;

BUCKEYE        CLEAR     66  18  15 E6        29.79S
LUKE AFB       CLEAR     68  30  24 NW3       29.79S
6HR MIN TEMP:  68; 6HR MAX TEMP:  80;

DEER VALLEY    CLEAR     69  23  17 CALM      29.80F
6HR MIN TEMP:  68; 6HR MAX TEMP:  81;

SCOTTSDALE     CLEAR     70  39  32 SW3       29.82S
6HR MIN TEMP:  70; 6HR MAX TEMP:  84;

$$

AZZ539-553-291300-
SOUTHWEST MARICOPA COUNTY AND PINAL COUNTY

CITY           SKY/WX    TMP DP  RH WIND       PRES   REMARKS
CASA GRANDE    CLEAR     67  22  18 CALM      29.83S
6HR MIN TEMP:  67; 6HR MAX TEMP:  82;

GILA BEND      FAIR      72  17  12 SE10      29.77S
6HR MIN TEMP:  72; 6HR MAX TEMP:  81;

$$

AZZ503-504-507>509-291300-
SOUTHEAST ARIZONA

CITY           SKY/WX    TMP DP  RH WIND       PRES   REMARKS
TUCSON         CLEAR     66  26  22 SE9       29.92S
6HR MIN TEMP:  65; 6HR MAX TEMP:  81;

DAVIS-MONTHAN  CLEAR     62  18  18 SE6       29.91S
6HR MIN TEMP:  61; 6HR MAX TEMP:  77;

NOGALES        CLEAR     55  26  32 NE3       29.98F
6HR MIN TEMP:  55; 6HR MAX TEMP:  67;

SIERRA VISTA   CLEAR     65  13  13 SW9       30.04S
6HR MIN TEMP:  65; 6HR MAX TEMP:  72;

DOUGLAS        CLEAR     55  12  18 N9        30.01S
6HR MIN TEMP:  51; 6HR MAX TEMP:  67;

SAFFORD        CLEAR     68  30  24 E7        29.97R
6HR MIN TEMP:  67; 6HR MAX TEMP:  77;

$$

AZZ532-291300-
SOUTHWEST ARIZONA

CITY           SKY/WX    TMP DP  RH WIND       PRES   REMARKS
YUMA           PTCLDY    74  46  36 CALM      29.74S
6HR MIN TEMP:  74; 6HR MAX TEMP:  84;

$$

CAZ041-043-047-048-061-525>527-560>570-291300-
SOUTHERN CALIFORNIA

CITY           SKY/WX    TMP DP  RH WIND       PRES   REMARKS
DOWNTOWN L.A.  CLOUDY    61  56  83 CALM      29.91F
6HR MIN TEMP:  60; 6HR MAX TEMP:  62;

L.A. AIRPORT   CLOUDY    60  57  89 S3        29.92F
6HR MIN TEMP:  60; 6HR MAX TEMP:  61;

SAN DIEGO      CLOUDY    61  57  87 NW3       29.94F
6HR MIN TEMP:  61; 6HR MAX TEMP:  63;

BURBANK        MOCLDY    57  53  86 S3        29.91F
6HR MIN TEMP:  57; 6HR MAX TEMP:  63;

ONTARIO        MOCLDY    57  53  86 W6        29.92S
6HR MIN TEMP:  57; 6HR MAX TEMP:  64;

RIVERSIDE      PTCLDY    57  54  89 CALM      29.92S
6HR MIN TEMP:  57; 6HR MAX TEMP:  64;

PALM SPRINGS   PTCLDY    72  52  49 CALM      29.78S
6HR MIN TEMP:  71; 6HR MAX TEMP:  89;

EL CENTRO NAS  CLEAR     72  32  23 W10       29.74S
6HR MIN TEMP:  71; 6HR MAX TEMP:  83;

IMPERIAL       PTCLDY    71  39  31 W5        29.71F
6HR MIN TEMP:  70; 6HR MAX TEMP:  80;

BLYTHE         CLEAR     71  29  21 NW7       29.75S
6HR MIN TEMP:  70; 6HR MAX TEMP:  92;

NEEDLES        CLEAR     75  13   9 S3        29.79R
6HR MIN TEMP:  75; 6HR MAX TEMP:  86;

$$

NVZ020-UTZ003-291300-
SOUTHERN NEVADA-UTAH

CITY           SKY/WX    TMP DP  RH WIND       PRES   REMARKS
LAS VEGAS      PTCLDY    73  21  14 SW3       29.89R
6HR MIN TEMP:  72; 6HR MAX TEMP:  83;

SALT LAKE CITY CLEAR     55  41  59 SE5       30.14R
6HR MIN TEMP:  55; 6HR MAX TEMP:  64;

$$

NMZ009-TXZ055-291300-
NEW MEXICO-WEST TEXAS

CITY           SKY/WX    TMP DP  RH WIND       PRES   REMARKS
ALBUQUERQUE    PTCLDY    59  35  40 NE6       30.20R
6HR MIN TEMP:  58; 6HR MAX TEMP:  68;

EL PASO        CLEAR     66  42  41 E6        30.11R
6HR MIN TEMP:  66; 6HR MAX TEMP:  75;

$$


........................KEY........................
SKY/WX - SKY CONDITION/WEATHER
TMP    - TEMPERATURE IN FAHRENHEIT
DP     - DEW POINT IN FAHRENHEIT
RH     - RELATIVE HUMIDITY IN PERCENT
WIND   - DIRECTION AND SPEED IN MILES PER HOUR (MPH)
VRB    - VARIABLE WIND DIRECTION
PRES   - MEAN SEA LEVEL PRESSURE IN INCHES OF MERCURY
         F - FALLING PRESSURE   R - RISING PRESSURE
         S - STEADY PRESSURE
VSB    - VISIBILITY IN MILES
HX     - HEAT INDEX IN FAHRENHEIT
WCI    - WIND CHILL INDEX IN FAHRENHEIT
TC     - TEMPERATURE IN CELSIUS WHICH IS ALSO KNOWN AS
         TEMPERATURE IN CENTIGRADE
AFB    - AIR FORCE BASE
         LUKE AFB IS LUKE AIR FORCE BASE
         DAVIS-MONTHAN IS DAVIS-MONTHAN AIR FORCE BASE
NAS    - NAVAL AIR STATION
         EL CENTRO NAS IS EL CENTRO NAVAL AIR STATION
N/A    - NOT AVAILABLE





USA.gov is the U.S. government's official web portal to all federal, state and local government web resources and services.